This is the latest recevied weather packets stored in our database for station/object DL1AIE-13. If no packets are shown the sender has not sent any weather packets the latest 10 day(s).
| Time | Temp. | Humidity | Pressure | Rain* | Wind** | Luminosity | Snow |
|---|---|---|---|---|---|---|---|
| 1777583550 | 9.44° C | 55% | 1028 hPa | 0 mm | - | - | - |
| 1777582946 | 8.89° C | 56% | 1027.9 hPa | 0 mm | - | - | - |
| 1777582342 | 10° C | 53% | 1027.7 hPa | 0 mm | - | - | - |
| 1777581739 | 10° C | 52% | 1027.7 hPa | 0 mm | - | - | - |
| 1777581156 | 10.56° C | 51% | 1027.6 hPa | 0 mm | - | - | - |
| 1777580552 | 10.56° C | 50% | 1027.7 hPa | 0 mm | - | - | - |
| 1777579948 | 11.67° C | 46% | 1027.5 hPa | 0 mm | - | - | - |
| 1777579345 | 12.22° C | 43% | 1027.5 hPa | 0 mm | - | - | - |
| 1777578741 | 12.78° C | 40% | 1027.4 hPa | 0 mm | - | - | - |
| 1777578137 | 12.78° C | 39% | 1027.5 hPa | 0 mm | - | - | - |
| 1777577554 | 14.44° C | 35% | 1027.3 hPa | 0 mm | - | - | - |
| 1777576951 | 15° C | 33% | 1027.1 hPa | 0 mm | - | - | - |
| 1777576346 | 15° C | 33% | 1027.1 hPa | 0 mm | - | - | - |
| 1777575743 | 15.56° C | 32% | 1027 hPa | 0 mm | - | - | - |
| 1777575139 | 15.56° C | 32% | 1026.9 hPa | 0 mm | - | - | - |
| 1777574555 | 16.11° C | 31% | 1026.8 hPa | 0 mm | - | - | - |
| 1777573952 | 16.67° C | 30% | 1026.9 hPa | 0 mm | - | - | - |
| 1777573348 | 16.67° C | 30% | 1026.8 hPa | 0 mm | - | - | - |
| 1777572748 | 16.67° C | 29% | 1026.7 hPa | 0 mm | - | - | - |
| 1777572140 | 17.22° C | 29% | 1026.6 hPa | 0 mm | - | - | - |
| 1777571536 | 17.22° C | 28% | 1026.7 hPa | 0 mm | - | - | - |
| 1777570952 | 17.22° C | 28% | 1026.8 hPa | 0 mm | - | - | - |
| 1777570348 | 17.78° C | 27% | 1026.7 hPa | 0 mm | - | - | - |
| 1777569748 | 17.78° C | 27% | 1026.8 hPa | 0 mm | - | - | - |
| 1777569141 | 17.78° C | 26% | 1026.7 hPa | 0 mm | - | - | - |
* Rain latest hour (hover to see other rain measurements)
** Current wind speed in m/s (hover to see current wind gust speed)